This is the latest recevied weather packets stored in our database for station/object WX2NJ. If no packets are shown the sender has not sent any weather packets the latest 10 day(s).
| Time | Temp. | Humidity | Pressure | Rain* | Wind** | Luminosity | Snow |
|---|---|---|---|---|---|---|---|
| 1777642839 | 14.44° C | 57% | 1017.4 hPa | 0 mm | - | 143 W/m² | - |
| 1777642536 | 13.89° C | 55% | 1017.6 hPa | 0 mm | - | 141 W/m² | - |
| 1777642233 | 13.89° C | 53% | 1017.5 hPa | 0 mm | - | 138 W/m² | - |
| 1777641930 | 13.89° C | 58% | 1017.4 hPa | 0 mm | - | 137 W/m² | - |
| 1777641625 | 13.33° C | 56% | 1017.6 hPa | 0 mm | - | 136 W/m² | - |
| 1777641320 | 13.89° C | 57% | 1017.6 hPa | 0 mm | - | 136 W/m² | - |
| 1777641016 | 13.33° C | 60% | 1017.7 hPa | 0 mm | - | 138 W/m² | - |
| 1777640713 | 13.33° C | 57% | 1017.4 hPa | 0 mm | - | 150 W/m² | - |
| 1777640410 | 13.33° C | 57% | 1017.6 hPa | 0 mm | - | 242 W/m² | - |
| 1777640107 | 12.78° C | 58% | 1017.5 hPa | 0 mm | - | 331 W/m² | - |
| 1777639803 | 12.78° C | 61% | 1017.4 hPa | 0 mm | - | 174 W/m² | - |
| 1777639501 | 13.33° C | 61% | 1017.3 hPa | 0 mm | - | 176 W/m² | - |
| 1777639197 | 13.33° C | 66% | 1017.3 hPa | 0 mm | - | 209 W/m² | - |
| 1777638894 | 12.22° C | 68% | 1017.6 hPa | 0 mm | - | 250 W/m² | - |
| 1777638589 | 11.67° C | 67% | 1017.6 hPa | 0 mm | - | 179 W/m² | - |
| 1777638286 | 12.78° C | 69% | 1017.7 hPa | 0 mm | - | 187 W/m² | - |
| 1777637982 | 12.22° C | 72% | 1017.5 hPa | 0 mm | - | 198 W/m² | - |
| 1777637679 | 12.22° C | 72% | 1017.5 hPa | 0 mm | - | 221 W/m² | - |
| 1777637376 | 11.11° C | 78% | 1017.6 hPa | 0 mm | - | 187 W/m² | - |
| 1777637072 | 10.56° C | 82% | 1017.7 hPa | 0 mm | - | 204 W/m² | - |
| 1777636768 | 10° C | 86% | 1017.4 hPa | 0 mm | - | 181 W/m² | - |
| 1777636465 | 9.44° C | 88% | 1017.6 hPa | 0 mm | - | 196 W/m² | - |
| 1777636161 | 10° C | 90% | 1017.7 hPa | 0 mm | - | 137 W/m² | - |
| 1777635856 | 9.44° C | 91% | 1017.6 hPa | 0 mm | - | 169 W/m² | - |
| 1777635552 | 10° C | 91% | 1017.7 hPa | 0 mm | - | 172 W/m² | - |
* Rain latest hour (hover to see other rain measurements)
** Current wind speed in m/s (hover to see current wind gust speed)